SND98 YAYE-YKBA

Flight info

Callsign SND98
Flight time 2h 32m
Altitude 34000
Route SCHEE T85 KA Z55 GUGRA
Aircraft A319/M-SDE3FGHIRWY/LB1

Departure

Time 2026-04-13 23:15
Airport Ayers Rock Connellan Airport (YAYE)

Arrival

Time 2026-04-14 01:47
Airport Ken's Bore airport (YKBA)
Time Latitude Longitude Altitude Speed Heading
2026-04-13 22:54 -25.19113 130.97829 1637 ft 0 kts 264°
2026-04-13 23:05 -25.19113 130.97832 1637 ft 3 kts 264°
2026-04-13 23:05 -25.19110 130.97861 1637 ft 3 kts 264°
2026-04-13 23:05 -25.19111 130.97873 1637 ft 0 kts 283°
2026-04-13 23:08 -25.19111 130.97871 1637 ft 0 kts 284°
2026-04-13 23:08 -25.19106 130.97861 1637 ft 2 kts 304°
2026-04-13 23:08 -25.19085 130.97845 1637 ft 4 kts 333°
2026-04-13 23:08 -25.19056 130.97827 1637 ft 5 kts 322°
2026-04-13 23:09 -25.19027 130.97794 1636 ft 7 kts 309°
2026-04-13 23:09 -25.18992 130.97748 1636 ft 8 kts 309°
2026-04-13 23:09 -25.18944 130.97723 1635 ft 8 kts 28°
2026-04-13 23:09 -25.18898 130.97766 1635 ft 8 kts 39°
2026-04-13 23:10 -25.18852 130.97807 1635 ft 8 kts 40°
2026-04-13 23:10 -25.18807 130.97849 1636 ft 8 kts 40°
2026-04-13 23:10 -25.18763 130.97888 1636 ft 8 kts 36°
2026-04-13 23:10 -25.18714 130.97878 1635 ft 8 kts 314°
2026-04-13 23:11 -25.18676 130.97827 1635 ft 9 kts 309°
2026-04-13 23:11 -25.18634 130.97771 1635 ft 9 kts 310°
2026-04-13 23:11 -25.18578 130.97696 1634 ft 16 kts 309°
2026-04-13 23:11 -25.18507 130.97601 1634 ft 16 kts 309°
2026-04-13 23:12 -25.18416 130.97481 1634 ft 23 kts 309°
2026-04-13 23:12 -25.18314 130.97345 1633 ft 22 kts 309°
2026-04-13 23:12 -25.18220 130.97220 1633 ft 20 kts 310°
2026-04-13 23:12 -25.18132 130.97102 1633 ft 19 kts 309°
2026-04-13 23:13 -25.18043 130.96983 1632 ft 22 kts 310°
2026-04-13 23:13 -25.17943 130.96851 1630 ft 22 kts 310°
2026-04-13 23:13 -25.17859 130.96733 1629 ft 14 kts 292°
2026-04-13 23:13 -25.17825 130.96668 1629 ft 9 kts 43°
2026-04-13 23:14 -25.17835 130.96706 1629 ft 0 kts 127°
2026-04-13 23:14 -25.17871 130.96755 1629 ft 34 kts 129°
2026-04-13 23:14 -25.18167 130.97148 1633 ft 98 kts 129°
2026-04-13 23:14 -25.18726 130.97896 1637 ft 152 kts 129°
2026-04-13 23:15 -25.19478 130.98868 1929 ft 171 kts 123°
2026-04-13 23:15 -25.20193 130.99870 2604 ft 168 kts 123°
2026-04-13 23:15 -25.20882 131.00870 3258 ft 167 kts 122°
2026-04-13 23:15 -25.21613 131.01875 3847 ft 171 kts 124°
2026-04-13 23:16 -25.22305 131.03015 4157 ft 189 kts 108°
2026-04-13 23:16 -25.22307 131.04492 4493 ft 208 kts 66°
2026-04-13 23:16 -25.21260 131.05704 4858 ft 235 kts 27°
2026-04-13 23:16 -25.19598 131.06012 5342 ft 258 kts 354°
2026-04-13 23:17 -25.17867 131.05235 5746 ft 283 kts 322°
2026-04-13 23:17 -25.16556 131.03598 6473 ft 291 kts 308°
2026-04-13 23:17 -25.15323 131.01831 7308 ft 293 kts 309°
2026-04-13 23:17 -25.14007 131.00122 8154 ft 294 kts 312°
2026-04-13 23:18 -25.12628 130.98488 8941 ft 296 kts 314°
2026-04-13 23:18 -25.11170 130.96869 9681 ft 298 kts 316°
2026-04-13 23:18 -25.09685 130.95283 10377 ft 301 kts 316°
2026-04-13 23:18 -25.08130 130.93661 10757 ft 316 kts 317°
2026-04-13 23:19 -25.06475 130.91963 11148 ft 329 kts 317°
2026-04-13 23:19 -25.04805 130.90262 11779 ft 332 kts 317°
2026-04-13 23:19 -25.03104 130.88538 12474 ft 332 kts 317°
2026-04-13 23:19 -25.01394 130.86809 13166 ft 332 kts 317°
2026-04-13 23:20 -24.99705 130.85103 13814 ft 333 kts 317°
2026-04-13 23:20 -24.97981 130.83366 14426 ft 335 kts 317°
2026-04-13 23:20 -24.96268 130.81642 15018 ft 337 kts 317°
2026-04-13 23:20 -24.94548 130.79910 15612 ft 338 kts 317°
2026-04-13 23:21 -24.92831 130.78183 16171 ft 341 kts 317°
2026-04-13 23:21 -24.91146 130.76489 16701 ft 343 kts 317°
2026-04-13 23:21 -24.89381 130.74715 17136 ft 349 kts 317°
2026-04-13 23:21 -24.87587 130.72911 17608 ft 353 kts 317°
2026-04-13 23:22 -24.85756 130.71072 18147 ft 355 kts 316°
2026-04-13 23:22 -24.83935 130.69246 18680 ft 357 kts 316°
2026-04-13 23:22 -24.82099 130.67404 19179 ft 360 kts 316°
2026-04-13 23:22 -24.80245 130.65544 19664 ft 363 kts 316°
2026-04-13 23:23 -24.78380 130.63675 20153 ft 365 kts 316°
2026-04-13 23:23 -24.76505 130.61795 20650 ft 367 kts 316°
2026-04-13 23:23 -24.74618 130.59903 21116 ft 369 kts 315°
2026-04-13 23:23 -24.72695 130.57979 21584 ft 372 kts 315°
2026-04-13 23:24 -24.70783 130.56064 22030 ft 374 kts 315°
2026-04-13 23:24 -24.66926 130.52205 22900 ft 379 kts 315°
2026-04-13 23:24 -24.64955 130.50236 23316 ft 381 kts 315°
2026-04-13 23:25 -24.63007 130.48290 23724 ft 382 kts 315°
2026-04-13 23:25 -24.61029 130.46312 24141 ft 383 kts 315°
2026-04-13 23:25 -24.59079 130.44365 24547 ft 384 kts 315°
2026-04-13 23:25 -24.57090 130.42380 24932 ft 386 kts 315°
2026-04-13 23:26 -24.55094 130.40389 25303 ft 387 kts 315°
2026-04-13 23:26 -24.53090 130.38390 25655 ft 389 kts 314°
2026-04-13 23:26 -24.51102 130.36408 25994 ft 391 kts 315°
2026-04-13 23:26 -24.49071 130.34384 26350 ft 392 kts 315°
2026-04-13 23:27 -24.47072 130.32394 26696 ft 394 kts 315°
2026-04-13 23:27 -24.45036 130.30368 27029 ft 396 kts 315°
2026-04-13 23:27 -24.42989 130.28331 27378 ft 397 kts 315°
2026-04-13 23:27 -24.40936 130.26288 27720 ft 398 kts 315°
2026-04-13 23:28 -24.38898 130.24263 28045 ft 399 kts 315°
2026-04-13 23:28 -24.36823 130.22201 28346 ft 401 kts 315°
2026-04-13 23:28 -24.34751 130.20143 28655 ft 402 kts 315°
2026-04-13 23:28 -24.32675 130.18083 28965 ft 403 kts 315°
2026-04-13 23:29 -24.30613 130.16037 29275 ft 404 kts 315°
2026-04-13 23:29 -24.28515 130.13957 29584 ft 405 kts 315°
2026-04-13 23:29 -24.26412 130.11873 29880 ft 407 kts 315°
2026-04-13 23:29 -24.24335 130.09816 30166 ft 408 kts 315°
2026-04-13 23:30 -24.22234 130.07736 30445 ft 409 kts 315°
2026-04-13 23:30 -24.20103 130.05626 30737 ft 409 kts 315°
2026-04-13 23:30 -24.18010 130.03557 31114 ft 408 kts 315°
2026-04-13 23:30 -24.15929 130.01500 31504 ft 405 kts 315°
2026-04-13 23:31 -24.13833 129.99429 31882 ft 403 kts 315°
2026-04-13 23:31 -24.11750 129.97371 32236 ft 401 kts 315°
2026-04-13 23:31 -24.09703 129.95349 32567 ft 400 kts 315°
2026-04-13 23:31 -24.07625 129.93297 32889 ft 400 kts 315°
2026-04-13 23:32 -24.05568 129.91267 33152 ft 401 kts 315°
2026-04-13 23:32 -24.03480 129.89204 33404 ft 402 kts 315°
2026-04-13 23:32 -24.01426 129.87180 33672 ft 402 kts 315°
2026-04-13 23:32 -23.99338 129.85123 33945 ft 402 kts 315°
2026-04-13 23:33 -23.97279 129.83095 34185 ft 403 kts 315°
2026-04-13 23:33 -23.95186 129.81032 34216 ft 404 kts 315°
2026-04-13 23:33 -23.91008 129.76924 34222 ft 405 kts 315°
2026-04-13 23:34 -23.86796 129.72784 34220 ft 405 kts 315°
2026-04-13 23:34 -23.82624 129.68689 34223 ft 405 kts 315°
2026-04-13 23:35 -23.78409 129.64554 34220 ft 405 kts 315°
2026-04-13 23:35 -23.74228 129.60455 34219 ft 406 kts 315°
2026-04-13 23:36 -23.70021 129.56335 34220 ft 405 kts 315°
2026-04-13 23:36 -23.65814 129.52217 34217 ft 405 kts 315°
2026-04-13 23:37 -23.61647 129.48143 34215 ft 405 kts 315°
2026-04-13 23:37 -23.57429 129.44023 34215 ft 405 kts 315°
2026-04-13 23:38 -23.53249 129.39944 34216 ft 406 kts 315°
2026-04-13 23:38 -23.49032 129.35832 34214 ft 406 kts 315°
2026-04-13 23:39 -23.44823 129.31734 34217 ft 406 kts 316°
2026-04-13 23:39 -23.40624 129.27646 34218 ft 406 kts 316°
2026-04-13 23:40 -23.36407 129.23544 34220 ft 406 kts 316°
2026-04-13 23:40 -23.32193 129.19450 34219 ft 406 kts 316°
2026-04-13 23:41 -23.27988 129.15369 34221 ft 407 kts 316°
2026-04-13 23:41 -23.23772 129.11279 34220 ft 407 kts 315°
2026-04-13 23:42 -23.19546 129.07182 34218 ft 406 kts 316°
2026-04-13 23:42 -23.15332 129.03101 34216 ft 406 kts 316°
2026-04-13 23:43 -23.11127 128.99030 34209 ft 407 kts 316°
2026-04-13 23:43 -23.06909 128.94952 34209 ft 407 kts 316°
2026-04-13 23:44 -23.02915 128.90610 34205 ft 405 kts 308°
2026-04-13 23:44 -22.99775 128.85571 34206 ft 404 kts 297°
2026-04-13 23:45 -22.97580 128.79968 34201 ft 404 kts 288°
2026-04-13 23:45 -22.96330 128.74060 34199 ft 405 kts 282°
2026-04-13 23:46 -22.95297 128.68037 34201 ft 405 kts 282°
2026-04-13 23:46 -22.94282 128.62079 34198 ft 404 kts 282°
2026-04-13 23:47 -22.93257 128.56087 34202 ft 404 kts 282°
2026-04-13 23:47 -22.92233 128.50108 34198 ft 405 kts 282°
2026-04-13 23:48 -22.91201 128.44099 34200 ft 405 kts 282°
2026-04-13 23:48 -22.90172 128.38119 34198 ft 405 kts 282°
2026-04-13 23:49 -22.89143 128.32155 34200 ft 405 kts 282°
2026-04-13 23:49 -22.88102 128.26134 34199 ft 405 kts 282°
2026-04-13 23:50 -22.87067 128.20160 34202 ft 405 kts 282°
2026-04-13 23:50 -22.86028 128.14183 34198 ft 405 kts 282°
2026-04-13 23:51 -22.84987 128.08208 34203 ft 405 kts 282°
2026-04-13 23:51 -22.83944 128.02232 34202 ft 404 kts 282°
2026-04-13 23:52 -22.82897 127.96249 34203 ft 404 kts 282°
2026-04-13 23:52 -22.81856 127.90305 34202 ft 403 kts 282°
2026-04-13 23:53 -22.80807 127.84336 34203 ft 404 kts 282°
2026-04-13 23:53 -22.79753 127.78355 34203 ft 405 kts 282°
2026-04-13 23:54 -22.78699 127.72389 34204 ft 405 kts 282°
2026-04-13 23:54 -22.77644 127.66428 34202 ft 405 kts 282°
2026-04-13 23:55 -22.76580 127.60422 34203 ft 405 kts 282°
2026-04-13 23:55 -22.75520 127.54456 34203 ft 405 kts 282°
2026-04-13 23:56 -22.74457 127.48489 34201 ft 405 kts 282°
2026-04-13 23:56 -22.73394 127.42536 34200 ft 404 kts 282°
2026-04-13 23:57 -22.72328 127.36581 34198 ft 404 kts 282°
2026-04-13 23:57 -22.71263 127.30640 34200 ft 403 kts 282°
2026-04-13 23:58 -22.70194 127.24689 34197 ft 403 kts 282°
2026-04-13 23:58 -22.69123 127.18743 34191 ft 404 kts 282°
2026-04-13 23:59 -22.68046 127.12780 34189 ft 404 kts 282°
2026-04-13 23:59 -22.66970 127.06837 34189 ft 404 kts 282°
2026-04-14 00:00 -22.65883 127.00838 34191 ft 404 kts 282°
2026-04-14 00:00 -22.64800 126.94881 34193 ft 405 kts 282°
2026-04-14 00:01 -22.63717 126.88934 34195 ft 404 kts 282°
2026-04-14 00:01 -22.62633 126.82987 34191 ft 404 kts 282°
2026-04-14 00:02 -22.61546 126.77045 34190 ft 404 kts 282°
2026-04-14 00:02 -22.60452 126.71080 34187 ft 404 kts 282°
2026-04-14 00:03 -22.59360 126.65141 34189 ft 404 kts 282°
2026-04-14 00:03 -22.58270 126.59215 34185 ft 404 kts 282°
2026-04-14 00:04 -22.57170 126.53249 34184 ft 404 kts 282°
2026-04-14 00:04 -22.56073 126.47317 34185 ft 404 kts 282°
2026-04-14 00:05 -22.54974 126.41389 34182 ft 404 kts 282°
2026-04-14 00:05 -22.53869 126.35435 34182 ft 404 kts 282°
2026-04-14 00:06 -22.52761 126.29480 34180 ft 404 kts 282°
2026-04-14 00:06 -22.51655 126.23548 34179 ft 403 kts 282°
2026-04-14 00:07 -22.50550 126.17638 34174 ft 404 kts 282°
2026-04-14 00:07 -22.49435 126.11678 34162 ft 403 kts 282°
2026-04-14 00:08 -22.48326 126.05769 34156 ft 404 kts 282°
2026-04-14 00:08 -22.47214 125.99851 34155 ft 404 kts 282°
2026-04-14 00:09 -22.46085 125.93863 34151 ft 405 kts 282°
2026-04-14 00:09 -22.44966 125.87933 34150 ft 404 kts 282°
2026-04-14 00:10 -22.43842 125.81994 34150 ft 404 kts 282°
2026-04-14 00:10 -22.42718 125.76059 34151 ft 404 kts 282°
2026-04-14 00:11 -22.41598 125.70166 34149 ft 404 kts 282°
2026-04-14 00:11 -22.40460 125.64205 34148 ft 404 kts 282°
2026-04-14 00:12 -22.39322 125.58257 34148 ft 404 kts 282°
2026-04-14 00:12 -22.38188 125.52329 34145 ft 404 kts 282°
2026-04-14 00:13 -22.37053 125.46410 34146 ft 404 kts 282°
2026-04-14 00:13 -22.35918 125.40507 34143 ft 404 kts 282°
2026-04-14 00:14 -22.34775 125.34570 34146 ft 404 kts 282°
2026-04-14 00:14 -22.33628 125.28627 34140 ft 405 kts 282°
2026-04-14 00:15 -22.32475 125.22659 34137 ft 405 kts 282°
2026-04-14 00:15 -22.31326 125.16729 34137 ft 405 kts 282°
2026-04-14 00:16 -22.30182 125.10835 34136 ft 405 kts 282°
2026-04-14 00:16 -22.29025 125.04893 34136 ft 405 kts 282°
2026-04-14 00:17 -22.27871 124.98966 34136 ft 405 kts 282°
2026-04-14 00:17 -22.26712 124.93027 34134 ft 405 kts 282°
2026-04-14 00:18 -22.25543 124.87059 34135 ft 405 kts 282°
2026-04-14 00:18 -22.24383 124.81142 34133 ft 405 kts 282°
2026-04-14 00:19 -22.23219 124.75220 34135 ft 405 kts 282°
2026-04-14 00:19 -22.22053 124.69298 34137 ft 405 kts 282°
2026-04-14 00:20 -22.20887 124.63387 34131 ft 404 kts 282°
2026-04-14 00:20 -22.19718 124.57469 34133 ft 405 kts 282°
2026-04-14 00:21 -22.18543 124.51541 34129 ft 405 kts 282°
2026-04-14 00:21 -22.17366 124.45607 34126 ft 405 kts 282°
2026-04-14 00:22 -22.16188 124.39683 34124 ft 405 kts 282°
2026-04-14 00:22 -22.15003 124.33741 34127 ft 405 kts 282°
2026-04-14 00:23 -22.13822 124.27821 34123 ft 405 kts 282°
2026-04-14 00:23 -22.12638 124.21902 34121 ft 405 kts 282°
2026-04-14 00:24 -22.11448 124.15969 34116 ft 405 kts 282°
2026-04-14 00:24 -22.10264 124.10074 34115 ft 405 kts 282°
2026-04-14 00:25 -22.09077 124.04174 34115 ft 404 kts 282°
2026-04-14 00:25 -22.07886 123.98259 34114 ft 404 kts 282°
2026-04-14 00:26 -22.06689 123.92329 34111 ft 404 kts 282°
2026-04-14 00:26 -22.05495 123.86435 34110 ft 405 kts 282°
2026-04-14 00:27 -22.04293 123.80507 34111 ft 405 kts 282°
2026-04-14 00:27 -22.03093 123.74606 34110 ft 405 kts 282°
2026-04-14 00:28 -22.01891 123.68698 34111 ft 406 kts 282°
2026-04-14 00:28 -22.00684 123.62779 34112 ft 405 kts 282°
2026-04-14 00:29 -21.99474 123.56853 34110 ft 405 kts 282°
2026-04-14 00:29 -21.98266 123.50957 34111 ft 405 kts 282°
2026-04-14 00:30 -21.97051 123.45042 34112 ft 404 kts 282°
2026-04-14 00:30 -21.95839 123.39150 34112 ft 404 kts 282°
2026-04-14 00:31 -21.94626 123.33258 34114 ft 404 kts 282°
2026-04-14 00:31 -21.93416 123.27393 34112 ft 404 kts 282°
2026-04-14 00:32 -21.91581 123.18519 34112 ft 405 kts 282°
2026-04-14 00:33 -21.90357 123.12609 34114 ft 405 kts 282°
2026-04-14 00:33 -21.89133 123.06720 34114 ft 406 kts 282°
2026-04-14 00:34 -21.87898 123.00781 34114 ft 406 kts 282°
2026-04-14 00:34 -21.86666 122.94877 34116 ft 406 kts 282°
2026-04-14 00:35 -21.85441 122.89007 34114 ft 405 kts 282°
2026-04-14 00:35 -21.84203 122.83094 34116 ft 405 kts 282°
2026-04-14 00:36 -21.82967 122.77196 34115 ft 404 kts 282°
2026-04-14 00:36 -21.81731 122.71308 34114 ft 405 kts 282°
2026-04-14 00:37 -21.80495 122.65430 34114 ft 404 kts 282°
2026-04-14 00:37 -21.79257 122.59555 34113 ft 404 kts 282°
2026-04-14 00:38 -21.78018 122.53687 34114 ft 404 kts 282°
2026-04-14 00:38 -21.76769 122.47785 34114 ft 405 kts 282°
2026-04-14 00:39 -21.75524 122.41908 34115 ft 405 kts 282°
2026-04-14 00:39 -21.74268 122.35992 34116 ft 405 kts 282°
2026-04-14 00:40 -21.73026 122.30145 34120 ft 404 kts 282°
2026-04-14 00:40 -21.71765 122.24232 34116 ft 405 kts 282°
2026-04-14 00:41 -21.70648 122.18330 34117 ft 405 kts 279°
2026-04-14 00:41 -21.69658 122.12398 34110 ft 405 kts 279°
2026-04-14 00:42 -21.68671 122.06478 34111 ft 404 kts 279°
2026-04-14 00:42 -21.67679 122.00534 34107 ft 405 kts 279°
2026-04-14 00:43 -21.66682 121.94577 34109 ft 404 kts 279°
2026-04-14 00:43 -21.65691 121.88668 34105 ft 405 kts 279°
2026-04-14 00:44 -21.64688 121.82711 34106 ft 404 kts 279°
2026-04-14 00:44 -21.63695 121.76808 34105 ft 404 kts 279°
2026-04-14 00:45 -21.62685 121.70836 34102 ft 404 kts 279°
2026-04-14 00:45 -21.61690 121.64955 34097 ft 404 kts 279°
2026-04-14 00:46 -21.60685 121.59028 34096 ft 404 kts 279°
2026-04-14 00:46 -21.59672 121.53076 34096 ft 404 kts 279°
2026-04-14 00:47 -21.58668 121.47179 34092 ft 404 kts 279°
2026-04-14 00:47 -21.57652 121.41229 34091 ft 404 kts 279°
2026-04-14 00:48 -21.56645 121.35352 34088 ft 404 kts 279°
2026-04-14 00:48 -21.55631 121.29433 34090 ft 403 kts 279°
2026-04-14 00:49 -21.54614 121.23516 34084 ft 403 kts 279°
2026-04-14 00:49 -21.53594 121.17594 34085 ft 404 kts 279°
2026-04-14 00:50 -21.52574 121.11684 34089 ft 404 kts 279°
2026-04-14 00:50 -21.51550 121.05767 34085 ft 404 kts 279°
2026-04-14 00:51 -21.50526 120.99863 34081 ft 404 kts 279°
2026-04-14 00:51 -21.49499 120.93954 34083 ft 403 kts 279°
2026-04-14 00:52 -21.48474 120.88068 34082 ft 403 kts 279°
2026-04-14 00:52 -21.47440 120.82148 34084 ft 403 kts 279°
2026-04-14 00:53 -21.46382 120.76096 34088 ft 406 kts 279°
2026-04-14 00:53 -21.45864 120.73135 34221 ft 410 kts 279°
2026-04-14 00:53 -21.45334 120.70115 34506 ft 410 kts 279°
2026-04-14 00:53 -21.44810 120.67134 34858 ft 408 kts 279°
2026-04-14 00:54 -21.44283 120.64136 35204 ft 407 kts 279°
2026-04-14 00:54 -21.43764 120.61182 35518 ft 406 kts 279°
2026-04-14 00:54 -21.43245 120.58234 35817 ft 405 kts 279°
2026-04-14 00:54 -21.42721 120.55260 36051 ft 405 kts 279°
2026-04-14 00:55 -21.42203 120.52324 36069 ft 404 kts 279°
2026-04-14 00:55 -21.41152 120.46386 36073 ft 405 kts 279°
2026-04-14 00:56 -21.40105 120.40475 36075 ft 405 kts 279°
2026-04-14 00:56 -21.39057 120.34576 36076 ft 405 kts 279°
2026-04-14 00:57 -21.38005 120.28658 36080 ft 405 kts 279°
2026-04-14 00:57 -21.36944 120.22709 36083 ft 404 kts 279°
2026-04-14 00:58 -21.35894 120.16824 36083 ft 405 kts 279°
2026-04-14 00:58 -21.34836 120.10920 36082 ft 405 kts 279°
2026-04-14 00:59 -21.33775 120.05004 36082 ft 405 kts 279°
2026-04-14 00:59 -21.32706 119.99062 36081 ft 405 kts 279°
2026-04-14 01:00 -21.31643 119.93170 36079 ft 405 kts 279°
2026-04-14 01:00 -21.30578 119.87263 36077 ft 405 kts 279°
2026-04-14 01:01 -21.29510 119.81354 36077 ft 405 kts 279°
2026-04-14 01:01 -21.28443 119.75462 36076 ft 404 kts 279°
2026-04-14 01:02 -21.27375 119.69577 36075 ft 404 kts 279°
2026-04-14 01:02 -21.26300 119.63669 36074 ft 404 kts 279°
2026-04-14 01:03 -21.25227 119.57784 36078 ft 404 kts 279°
2026-04-14 01:03 -21.24147 119.51901 36082 ft 404 kts 279°
2026-04-14 01:04 -21.23065 119.46008 36080 ft 404 kts 279°
2026-04-14 01:04 -21.21981 119.40110 36077 ft 404 kts 279°
2026-04-14 01:05 -21.20895 119.34201 36076 ft 404 kts 279°
2026-04-14 01:05 -21.19812 119.28339 36070 ft 404 kts 279°
2026-04-14 01:06 -21.18720 119.22424 36066 ft 404 kts 279°
2026-04-14 01:06 -21.17631 119.16537 36068 ft 404 kts 279°
2026-04-14 01:07 -21.16544 119.10680 36071 ft 404 kts 279°
2026-04-14 01:07 -21.15447 119.04785 36072 ft 404 kts 279°
2026-04-14 01:08 -21.14353 118.98911 36073 ft 402 kts 279°
2026-04-14 01:08 -21.13260 118.93057 36070 ft 402 kts 279°
2026-04-14 01:09 -21.12163 118.87190 36068 ft 403 kts 279°
2026-04-14 01:09 -21.11065 118.81332 36063 ft 402 kts 279°
2026-04-14 01:10 -21.09972 118.75501 36057 ft 402 kts 279°
2026-04-14 01:10 -21.08865 118.69624 36055 ft 402 kts 279°
2026-04-14 01:11 -21.07767 118.63803 36050 ft 403 kts 279°
2026-04-14 01:11 -21.06657 118.57918 36046 ft 403 kts 279°
2026-04-14 01:12 -21.05550 118.52062 36045 ft 402 kts 279°
2026-04-14 01:12 -21.04436 118.46200 36035 ft 402 kts 279°
2026-04-14 01:13 -21.03323 118.40339 36034 ft 402 kts 279°
2026-04-14 01:13 -21.02216 118.34528 36029 ft 401 kts 279°
2026-04-14 01:14 -21.01095 118.28655 36027 ft 401 kts 279°
2026-04-14 01:14 -20.99979 118.22815 36026 ft 401 kts 279°
2026-04-14 01:15 -20.98870 118.17021 36022 ft 400 kts 279°
2026-04-14 01:15 -20.97752 118.11192 36019 ft 400 kts 279°
2026-04-14 01:16 -20.96633 118.05362 36018 ft 400 kts 279°
2026-04-14 01:16 -20.95517 117.99571 36014 ft 400 kts 279°
2026-04-14 01:18 -20.91016 117.76307 36012 ft 401 kts 279°
2026-04-14 01:19 -20.89883 117.70473 36010 ft 401 kts 279°
2026-04-14 01:19 -20.88752 117.64671 36012 ft 400 kts 279°
2026-04-14 01:20 -20.87616 117.58845 36014 ft 400 kts 279°
2026-04-14 01:20 -20.86484 117.53058 36013 ft 399 kts 279°
2026-04-14 01:21 -20.85353 117.47280 36011 ft 399 kts 279°
2026-04-14 01:21 -20.84212 117.41473 36011 ft 399 kts 278°
2026-04-14 01:22 -20.83075 117.35681 36012 ft 399 kts 278°
2026-04-14 01:22 -20.81935 117.29891 36012 ft 398 kts 279°
2026-04-14 01:23 -20.80795 117.24111 36011 ft 398 kts 279°
2026-04-14 01:23 -20.79655 117.18343 36009 ft 398 kts 279°
2026-04-14 01:23 -20.79082 117.15448 35792 ft 399 kts 279°
2026-04-14 01:24 -20.78507 117.12552 35504 ft 396 kts 279°
2026-04-14 01:24 -20.77940 117.09698 35218 ft 394 kts 279°
2026-04-14 01:24 -20.77374 117.06847 34895 ft 390 kts 279°
2026-04-14 01:24 -20.76817 117.04039 34469 ft 390 kts 278°
2026-04-14 01:25 -20.76257 117.01218 33968 ft 390 kts 279°
2026-04-14 01:25 -20.75695 116.98389 33401 ft 391 kts 279°
2026-04-14 01:25 -20.75132 116.95563 32806 ft 392 kts 278°
2026-04-14 01:25 -20.74567 116.92719 32242 ft 393 kts 279°
2026-04-14 01:26 -20.73997 116.89858 31651 ft 394 kts 279°
2026-04-14 01:26 -20.73434 116.86993 31017 ft 394 kts 277°
2026-04-14 01:26 -20.73252 116.84132 30331 ft 393 kts 266°
2026-04-14 01:26 -20.73677 116.81265 29737 ft 392 kts 255°
2026-04-14 01:27 -20.74639 116.78573 29210 ft 391 kts 245°
2026-04-14 01:27 -20.76119 116.76119 28638 ft 395 kts 235°
2026-04-14 01:27 -20.78051 116.74043 28100 ft 399 kts 224°
2026-04-14 01:27 -20.80380 116.72405 27582 ft 402 kts 215°
2026-04-14 01:28 -20.82849 116.70950 27017 ft 402 kts 214°
2026-04-14 01:28 -20.85291 116.69539 26464 ft 401 kts 214°
2026-04-14 01:28 -20.87730 116.68137 25944 ft 398 kts 213°
2026-04-14 01:28 -20.90164 116.66743 25420 ft 396 kts 213°
2026-04-14 01:29 -20.92576 116.65362 24888 ft 395 kts 213°
2026-04-14 01:29 -20.95001 116.63974 24381 ft 392 kts 213°
2026-04-14 01:29 -20.97400 116.62600 23869 ft 390 kts 213°
2026-04-14 01:29 -20.99792 116.61231 23354 ft 388 kts 213°
2026-04-14 01:30 -21.02142 116.59886 22850 ft 386 kts 212°
2026-04-14 01:30 -21.04504 116.58533 22334 ft 385 kts 212°
2026-04-14 01:30 -21.06859 116.57183 21832 ft 383 kts 212°
2026-04-14 01:30 -21.09198 116.55842 21352 ft 381 kts 212°
2026-04-14 01:31 -21.11510 116.54517 21011 ft 375 kts 212°
2026-04-14 01:31 -21.13815 116.53195 20513 ft 374 kts 211°
2026-04-14 01:31 -21.16117 116.51873 19944 ft 376 kts 211°
2026-04-14 01:31 -21.18402 116.50561 19427 ft 376 kts 211°
2026-04-14 01:32 -21.20724 116.49228 18917 ft 376 kts 211°
2026-04-14 01:32 -21.23015 116.47912 18432 ft 375 kts 210°
2026-04-14 01:32 -21.25323 116.46586 17938 ft 374 kts 210°
2026-04-14 01:32 -21.27610 116.45271 17445 ft 374 kts 210°
2026-04-14 01:33 -21.29896 116.43957 16966 ft 373 kts 209°
2026-04-14 01:33 -21.32186 116.42641 16478 ft 373 kts 209°
2026-04-14 01:33 -21.34458 116.41337 15985 ft 373 kts 209°
2026-04-14 01:33 -21.36759 116.40013 15492 ft 373 kts 209°
2026-04-14 01:34 -21.39040 116.38700 15001 ft 373 kts 209°
2026-04-14 01:34 -21.41320 116.37389 14490 ft 373 kts 208°
2026-04-14 01:34 -21.43623 116.36062 13980 ft 373 kts 208°
2026-04-14 01:34 -21.45910 116.34743 13483 ft 373 kts 209°
2026-04-14 01:35 -21.48192 116.33426 12980 ft 372 kts 208°
2026-04-14 01:35 -21.50465 116.32117 12486 ft 370 kts 208°
2026-04-14 01:35 -21.52701 116.30827 12013 ft 354 kts 208°
2026-04-14 01:35 -21.54809 116.29611 11567 ft 338 kts 208°
2026-04-14 01:36 -21.56827 116.28446 11140 ft 323 kts 208°
2026-04-14 01:36 -21.58759 116.27331 10723 ft 309 kts 208°
2026-04-14 01:36 -21.60624 116.26253 10387 ft 293 kts 208°
2026-04-14 01:36 -21.62339 116.25262 10279 ft 273 kts 208°
2026-04-14 01:37 -21.64004 116.24300 10173 ft 270 kts 208°
2026-04-14 01:37 -21.65676 116.23333 10064 ft 273 kts 208°
2026-04-14 01:37 -21.67348 116.22366 9925 ft 270 kts 208°
2026-04-14 01:37 -21.68982 116.21421 9706 ft 265 kts 208°
2026-04-14 01:38 -21.72230 116.19541 8791 ft 265 kts 208°
2026-04-14 01:38 -21.73843 116.18606 8427 ft 264 kts 208°
2026-04-14 01:38 -21.75456 116.17672 8085 ft 262 kts 208°
2026-04-14 01:39 -21.77045 116.16751 7767 ft 261 kts 208°
2026-04-14 01:39 -21.78641 116.15826 7447 ft 259 kts 208°
2026-04-14 01:39 -21.80217 116.14915 7135 ft 257 kts 208°
2026-04-14 01:39 -21.81792 116.14002 6812 ft 257 kts 208°
2026-04-14 01:40 -21.83382 116.13080 6486 ft 256 kts 208°
2026-04-14 01:40 -21.84943 116.12176 6166 ft 257 kts 208°
2026-04-14 01:40 -21.86504 116.11269 5964 ft 255 kts 208°
2026-04-14 01:40 -21.88081 116.10353 5619 ft 254 kts 207°
2026-04-14 01:41 -21.89621 116.09458 5264 ft 252 kts 207°
2026-04-14 01:41 -21.91162 116.08563 5095 ft 251 kts 207°
2026-04-14 01:41 -21.92701 116.07670 5002 ft 251 kts 207°
2026-04-14 01:41 -21.94240 116.06776 4904 ft 251 kts 207°
2026-04-14 01:42 -21.95783 116.05891 4807 ft 250 kts 204°
2026-04-14 01:42 -21.97356 116.05094 4622 ft 249 kts 203°
2026-04-14 01:42 -21.98947 116.04311 4414 ft 248 kts 203°
2026-04-14 01:42 -22.00497 116.03552 4159 ft 242 kts 203°
2026-04-14 01:43 -22.02002 116.02811 3989 ft 229 kts 202°
2026-04-14 01:43 -22.03483 116.02409 3780 ft 215 kts 169°
2026-04-14 01:43 -22.04756 116.03061 3635 ft 199 kts 130°
2026-04-14 01:43 -22.05651 116.04205 3538 ft 198 kts 125°
2026-04-14 01:44 -22.06516 116.05359 3255 ft 200 kts 127°
2026-04-14 01:44 -22.07420 116.06475 2965 ft 198 kts 129°
2026-04-14 01:44 -22.08355 116.07559 2712 ft 194 kts 130°
2026-04-14 01:44 -22.09264 116.08575 2489 ft 185 kts 131°
2026-04-14 01:45 -22.10151 116.09553 2212 ft 179 kts 132°
2026-04-14 01:45 -22.11003 116.10482 1985 ft 170 kts 132°
2026-04-14 01:45 -22.11805 116.11354 1754 ft 158 kts 132°
2026-04-14 01:45 -22.12559 116.12169 1527 ft 146 kts 131°
2026-04-14 01:46 -22.13250 116.12922 1327 ft 138 kts 130°
2026-04-14 01:46 -22.13915 116.13663 1114 ft 137 kts 132°
2026-04-14 01:46 -22.14591 116.14391 914 ft 137 kts 132°
2026-04-14 01:46 -22.15254 116.15115 762 ft 137 kts 130°
2026-04-14 01:47 -22.15835 116.15762 724 ft 82 kts 136°
2026-04-14 01:47 -22.16069 116.16012 725 ft 26 kts 136°
2026-04-14 01:47 -22.16136 116.16074 725 ft 8 kts 141°
2026-04-14 01:47 -22.16126 116.16084 725 ft 4 kts 337°
2026-04-14 01:48 -22.16104 116.16054 724 ft 7 kts 306°
2026-04-14 01:48 -22.16057 116.15997 724 ft 10 kts 314°
2026-04-14 01:48 -22.16003 116.15939 724 ft 11 kts 322°
2026-04-14 01:48 -22.15937 116.15966 724 ft 11 kts 44°
2026-04-14 01:49 -22.15880 116.16025 724 ft 11 kts 44°
2026-04-14 01:49 -22.15824 116.16082 724 ft 7 kts 36°
2026-04-14 01:49 -22.15797 116.16089 724 ft 0 kts 356°